Regional Weather Roundup
Issued by NWS New Orleans/Baton Rouge, LA

Current Version | Previous Version | Text Only | Print | Product List | Glossary On
Versions: 1 2 3 4 5 6 7 8 9 10 11 12 13 14 15 16 17 18 19 20 21 22 23 24 25 26 27 28 29 30 31 32 33 34 35 36 37 38 39 40 41 42 43 44 45 46 47 48 49 50
000
ASUS44 KLIX 260811
RWRLIX
NEW ORLEANS REGIONAL WEATHER ROUNDUP
NATIONAL WEATHER SERVICE NEW ORLEANS LA
300 AM CDT SUN APR 26 2015

NOTE: "FAIR" INDICATES FEW OR NO CLOUDS BELOW 12,000 FEET WITH NO
      SIGNIFICANT WEATHER AND/OR OBSTRUCTIONS TO VISIBILITY.
      SKY/WX - SKY CONDITION AND SIGNIFICANT WEATHER.
      TMP - AIR TEMPERATURE.     DP    - DEWPOINT TEMPERATURE.
      RH  - RELATIVE HUMIDITY.   PRES  - PRESSURE.
      HI  - HEAT INDEX.          WCI   - WIND CHILL INDEX.

*  THESE STATIONS ARE NOT NWS OR FAA STATIONS AND ARE NOT UNDER
   NWS QUALITY CONTROL.

LAZ038-040-048-061>063-065>067-069-260900-
SOUTHEAST LOUISIANA

CITY           SKY/WX    TMP DP  RH WIND       PRES   REMARKS
N.O. AUDUBON     N/A     70  69  99 MISG        N/A
N.O. INTL ARPT PTCLDY    68  65  90 CALM      29.74S
N.O. LAKEFRONT CLEAR     75  69  81 W7        29.74S
SLIDELL        CLEAR     63  63 100 N3        29.73F
BATON ROUGE    CLEAR     67  66  97 W3        29.74S
BOOTHVILLE     PTCLDY    77  74  90 S9        29.73S
BELLE CHASSE   CLEAR     65  64  97 CALM      29.73S
BOGALUSA*        N/A     61  58  91 CALM      29.76S
GALLIANO*      SUNNY     73  71  93 CALM      29.74R FOG
NEW ROADS*     FOG       64  64  97 CALM      29.74S VSB 1
GONZALES*        N/A    N/A N/A N/A CALM      29.73S
HAMMOND*         N/A     64  61  88 CALM      29.76S FOG
HOUMA*           N/A     69  69 100 CALM      29.73S FOG
PORT FOURCHON* SUNNY     77  73  88 S6        29.76S

$$

MSZ070-080>082-260900-
SOUTHERN MISSISSIPPI

CITY           SKY/WX    TMP DP  RH WIND       PRES   REMARKS
MCCOMB         PTCLDY    63  62  97 CALM      29.74S FOG
GULFPORT       CLEAR     64  62  93 CALM      29.73F
BILOXI         CLEAR     68  67  98 CALM      29.73F
PASCAGOULA     CLEAR     62  61  96 CALM      29.74S

$$

COASTAL OBSERVATIONS
LAKE AND NEARSHORE STATIONS

STATION/POSITION TIME  TEMP    WIND        PRES    WAVE
                       AIR SEA DIR/SP/G            HT/PER
                 (UTC) (F)     (DEG/KT/KT) (MB)    (FT/S)
PASCAGOULA       0700   71     310/  4/  5 1006.5
WAVELAND YACHT   0700   69 74  320/  3/  3 1006.9
GRAND ISLE       0700   76 78  200/  6/  9 1006.7
SOUTHWEST PASS   0700   77 66  190/ 10/ 12 1007.2
NEW CANAL        0700   71     250/  2/  3 1007.5
SHELL BEACH      0700   73 76  270/  3/  4 1006.5

OFFSHORE STATIONS

STATION/POSITION TIME  TEMP    WIND        PRES    WAVE
                       AIR SEA DIR/SP/G            HT/PER
                 (UTC) (F)     (DEG/KT/KT) (MB)    (FT/S)
64 S DAUPHIN ISL 0750   78 77  210/ 14/ 17 1006.5    5/ 7

$$




USA.gov is the U.S. government's official web portal to all federal, state and local government web resources and services.